www.pogodaiklimat.ru

Погода и климат >> Архив погоды >> Ирак >> Эр-Рутба


ПОГОДА в Эр-Рутбе

  • Прогноз погоды в Эр-Рутбе
  • Монитор погоды в Эр-Рутбе

АРХИВ ПОГОДЫ в Эр-Рутбе

Время (UTC), дата Ветер
(напр.,м/с)
 
Видим.   Явления Облачность Т
(С)
Тd
(С)
f
(%)
Тe
(С)
Тes
(С)
Комфортность P
(гПа)
Po
(гПа)
Тmin
(С)
Tmax
(С)
R
(мм)
R24
(мм)
S
(см)
06 16.09 ЮЗ 2 10 км ясно +26.4 +9.2 34 +27 +33 жарко 1013.9 945.2 +20.0
09 16.09 ЮЗ 2 10 км ясно +32.4 +9.0 24 +31 +47 жарко 1012.7 945.4
12 16.09 Ю 2 10 км ясно +35.7 +8.6 19 +34 +43 очень
жарко
1009.8 943.4
15 16.09 штиль 0 10 км ясно +34.4 +10.4 23 +34 +34 очень
жарко
1010.2 943.5
18 16.09 ЮЗ 2 10 км ясно +30.8 +9.2 26 +30 +30 жарко 1012.8 945.1 +36.0
06 17.09 СЗ 2 10 км 5/5 900 м
[Sc]
+27.5 +7.5 28 +27 +30 жарко 1013.7 945.3 +21.5
09 17.09 С 3 10 км 5/5 900 м
[Sc]
+33.0 +8.5 22 +32 +38 жарко 1012.6 945.4
12 17.09 СВ 3 10 км 5/5 900 м
[Sc]
+35.0 +9.0 20 +33 +37 жарко 1011.8 945.1
15 17.09 В 2 10 км 4/4 750 м
[Cu med, cong]
+34.8 +8.8 20 +33 +33 жарко 1010.0 943.4
18 17.09 СЗ 2 10 км ясно +29.0 +11.0 33 +30 +30 жарко 1013.2 945.1 +35.5
06 18.09 СЗ 2 10 км ясно +26.4 +9.1 34 +27 +33 жарко 1015.2 946.4 +21.4
09 18.09 С 2 10 км ясно +33.0 +9.5 24 +32 +48 жарко 1012.6 945.4
12 18.09 штиль 0 10 км ясно +35.8 +8.7 19 +34 +46 очень
жарко
1012.0 945.4
06 19.09 ЮВ 2 10 км ясно +29.0 +11.2 33 +30 +36 жарко 1015.6 947.4 +21.5
12 19.09 ЮВ 2 10 км ясно +40.0 +11.5 18 +39 +48 очень
жарко
1011.2 945.6
15 19.09 В 2 10 км 5/5 750 м
[Cu med, cong]
+38.3 +11.5 20 +37 +37 очень
жарко
1011.6 945.6
18 19.09 СВ 2 10 км ясно +33.0 +9.7 24 +32 +32 жарко 1011.5 944.4 +40.3
06 20.09 Ю 2 10 км ясно +31.8 +9.5 25 +31 +37 жарко 1012.8 945.3 +24.5
09 20.09 ЮВ 3 10 км ясно +39.0 +11.0 19 +38 +51 опасность
солнечного
удара
1009.3 943.6
12 20.09 Ю 4 16 км 3/3 1050 м
[Cu hum]
+42.0 +11.0 16 +41 +45 опасность
перегрева
1007.5 942.5
15 20.09 Ю 3 10 км ясно +39.6 +12.8 20 +39 +39 очень
жарко
1007.9 942.4
18 20.09 ЮВ 4 10 км ясно +33.0 +9.7 24 +32 +32 жарко 1009.4 942.4 +42.5
06 21.09 Ю 2 10 км ясно +27.0 +7.3 29 +27 +33 жарко 1011.7 943.3 +22.8
09 21.09 Ю 2 10 км ясно +33.0 +9.7 24 +32 +47 жарко 1010.4 943.4
15 21.09 З 2 10 км ясно +35.0 +9.0 20 +33 +34 жарко 1009.0 942.5
18 21.09 З 2 10 км ясно +29.0 +11.2 33 +30 +30 жарко 1011.2 943.3 +37.3
06 22.09 З 3 10 км ясно +24.4 +10.4 41 +25 +31 комфорт 1014.5 945.3 +19.5
09 22.09 СЗ 2 10 км ясно +30.6 +9.3 27 +30 +45 жарко 1013.0 945.3
12 22.09 С 4 10 км ясно +33.2 +7.2 20 +31 +37 жарко 1010.9 943.9
15 22.09 СВ 2 10 км ясно +31.8 +7.4 22 +30 +30 жарко 1010.5 943.2
18 22.09 СВ 2 10 км ясно +27.2 +4.8 24 +26 +26 жарко 1011.2 942.9 +33.4

 

Местоположение метеостанции Эр-Рутба (Ирак): широта 33.03 долгота 40.28 высота над уровнем моря 615 м.

В архиве по умолчанию представлена погода в Эр-Рутбе за последнюю неделю. Архивные данные за месяц целиком и за предыдущие месяцы, начиная с января 2011 года, Вы можете получить, выбрав интересующий диапазон дат из раскрывающегося списка и нажав кнопку "Ввод!".


*Определитесь, кто Вы:
робот инопланетянин человек

Внимание! Время в таблицах - всемирное. Для получения местного времени необходимо прибавить поправку, которая равна 3 ч.

Смотрите также архив погоды в соседних городах и на ближайших метеорологических станциях:

Погода в Аль-Каиме (Ирак) (165 км)
Погода в Абу-Камале (Сирия) (166 км)
Погода в Руваишеде (Иордания) (203 км)
Погода в Тураифе (Саудовская Аравия) (209 км)
Погода в Аль-Нухибе (Ирак) (216 км)
Погода в Ане (Ирак) (222 км)
Погода в Хадите (Ирак) (226 км)
Погода в Пальмире (Сирия) (249 км)
Погода в Араре (Саудовская Аравия) (250 км)
Погода в Дайр-эз-Зауре (Сирия) (255 км)

Пояснения к столбцам:

Ветер - указаны скорость ветра в м/с - средняя за 10 мин, порывы в срок и между сроками (в фигурных скобках) и направление, откуда дует ветер: С - северный, СВ - северо-восточный, В - восточный, ЮВ - юго-восточный, Ю - южный, ЮЗ - юго-западный, З - западный, СЗ - северо-западный.
Видимость - горизонтальная дальность видимости в метрах или километрах. При видимости от 1 до 10 км при отсутствии осадков обычно наблюдается дымка, при ухудшении видимости до 1 км и менее - туман. В сухую погоду видимость может ухудшаться дымом, пылью или мглою.
Явления - указаны атмосферные явления, наблюдавшиеся в срок или в последний час перед сроком; фигурными скобками обозначены явления, наблюдавшиеся между сроками (за 1-3 часа до срока); квадратными скобками обозначены град или гололедные отложения с указанием их диаметра в мм.
Облачность - указаны через наклонную черту общая и нижняя облачность в баллах и высота нижней границы облаков в метрах; квадратными скобками обозначены формы облаков: Ci - перистые, Cs - перисто-слоистые, Cc - перисто-кучевые, Ac - высококучевые, As - высокослоистые, Sc - слоисто-кучевые, Ns - слоисто-дождевые, Cu - кучевые, Cb - кучево-дождевые. Подробнее классификацию облаков см. в Атласе облаков (PDF).
T - Температура воздуха - температура, измеренная на высоте 2 м над землей.
Td - Температура точки росы - температура, при понижении до которой содержащийся в воздухе водяной пар достигнет насыщения.
f - Относительная влажность воздуха - влажноcть воздуха, измеренная на высоте 2 м над землей.
Te - Эффективная температура - температура, которую ощущает одетый по сезону человек в тени. Характеристика душности погоды. При расчете учитывается влияние влажности воздуха и скорости ветра на теплоощущения человека.
Tes - Эффективная температура на солнце - температура, которую ощущает человек, с поправкой на солнечный нагрев. Характеристика знойности погоды. Зависит от высоты солнца над горизонтом, облачности и скорости ветра. Ночью, в пасмурную погоду, а также при ветре 12 м/с и более поправка равна нулю.
P - Атмосферное давление - приведенное к уровню моря атмосферное давление.
Po - Атмосферное давление - измеренное на уровне метеостанции атмосферное давление.
Tmin - Минимальная температура - минимум температуры воздуха на высоте 2 м над землей.
Tmax - Максимальная температура - максимум температуры воздуха на высоте 2 м над землей.
R - Количество осадков - Количество выпавших осадков за период времени, мм. При наведении курсора мыши на число - период времени, за который выпало указанное количество осадков.
R24 - Количество осадков - Количество выпавших осадков за 24 часа, мм.
S - Снежный покров - Высота снежного покрова, см. При наведении курсора мыши на число - состояние снежного покрова и степень покрытия местности в баллах.